Location: Unspecified
(0.0000°N, 0.0000°E)
Time: 14:55:42
(UTC+00:00)

Vanguard 1 Rocket - All Passes

Search period start: 25 August 2016 00:00
Search period end: 04 September 2016 00:00
Orbit: 652 x 4225 km, 34.3° (Epoch: 24 August)

Date Brightness Start Highest point End Pass type
(mag) Time Alt. Az. Time Alt. Az. Time Alt. Az.
25 Aug - 01:50:14 10° NNE 01:51:28 11° NE 01:52:46 10° NE visible
25 Aug - 04:10:24 10° WNW 04:16:08 78° SW 04:26:56 10° SE visible
25 Aug - 06:37:21 10° WSW 06:45:05 25° SSW 06:57:41 10° SSE daylight
25 Aug - 09:10:01 10° SW 09:20:59 18° S 09:35:21 10° SE daylight
25 Aug - 11:41:42 10° SSW 12:01:46 30° SSE 12:21:41 10° ESE daylight
25 Aug - 14:12:34 10° SW 14:38:43 62° SE 14:56:20 10° ENE daylight
25 Aug - 16:47:23 10° WSW 17:10:03 58° NW 17:22:30 10° NE daylight
25 Aug - 19:32:35 10° WNW 19:38:10 13° NW 19:42:38 10° NNW visible
26 Aug - 03:00:21 10° NW 03:05:09 49° NE 03:12:58 10° ESE visible
26 Aug - 05:25:11 10° W 05:31:44 33° SSW 05:43:13 10° SE visible
26 Aug - 07:55:56 10° SW 08:04:21 18° S 08:16:06 10° SSE daylight
26 Aug - 10:28:10 10° SSW 10:43:50 23° SSE 11:02:06 10° ESE daylight
26 Aug - 12:58:10 10° SW 13:22:40 47° SSE 13:42:37 10° E daylight
26 Aug - 15:30:30 10° SW 15:56:26 83° NW 16:11:38 10° NE daylight
26 Aug - 18:10:21 10° W 18:25:34 28° NW 18:34:57 10° NNE visible
27 Aug - 01:51:17 10° N 01:54:32 18° NE 01:58:32 10° E visible
27 Aug - 04:13:55 10° WNW 04:19:29 52° SSW 04:29:32 10° SE visible
27 Aug - 06:42:20 10° SW 06:49:18 19° SSW 06:59:37 10° SSE daylight
27 Aug - 09:14:50 10° SSW 09:26:00 18° S 09:40:19 10° SE daylight
27 Aug - 11:44:32 10° SSW 12:05:48 35° SSE 12:26:44 10° E daylight
27 Aug - 14:14:58 10° SW 14:41:40 74° SE 14:59:46 10° ENE daylight
27 Aug - 16:50:53 10° WSW 17:12:41 47° NW 17:25:15 10° NNE daylight
28 Aug - 03:03:23 10° NW 03:08:13 80° NE 03:16:13 10° SE visible
28 Aug - 05:29:36 10° WSW 05:35:37 24° SSW 05:45:11 10° SSE visible
28 Aug - 08:01:27 10° SSW 08:09:08 15° S 08:19:15 10° SSE daylight
28 Aug - 10:31:33 10° SSW 10:48:23 25° SSE 11:07:55 10° ESE daylight
28 Aug - 13:00:36 10° SW 13:25:54 55° SE 13:46:31 10° ENE daylight
28 Aug - 15:33:21 10° WSW 15:59:04 70° NW 16:14:35 10° NE daylight
28 Aug - 18:15:35 10° W 18:28:37 22° NW 18:37:18 10° N visible
29 Aug - 01:53:36 10° NNW 01:57:35 30° NE 02:02:47 10° ESE visible
29 Aug - 04:17:46 10° W 04:23:04 34° SSW 04:31:52 10° SE visible
29 Aug - 06:47:54 10° SW 06:53:42 15° S 07:01:30 10° SSE daylight
29 Aug - 09:19:00 10° SSW 09:30:54 19° SSE 09:46:05 10° SE daylight
29 Aug - 11:47:11 10° SSW 12:09:25 41° SSE 12:31:20 10° E daylight
29 Aug - 14:17:31 10° SW 14:44:26 86° SE 15:02:57 10° NE daylight
29 Aug - 16:54:51 10° WSW 17:15:24 38° NW 17:27:54 10° NNE daylight
30 Aug - 00:45:51 10° NNE 00:46:43 10° NE 00:47:36 10° NE night (unlit)
30 Aug - 03:06:43 10° WNW 03:11:28 63° SW 03:19:07 10° SE visible
30 Aug - 05:34:36 10° SW 05:39:41 17° SSW 05:46:51 10° SSE visible
30 Aug - 08:06:42 10° SSW 08:14:00 14° S 08:23:19 10° SE daylight
30 Aug - 10:34:32 10° SSW 10:52:32 30° SSE 11:13:26 10° E daylight
30 Aug - 13:03:04 10° SW 13:28:51 66° SE 13:50:06 10° ENE daylight
30 Aug - 15:36:32 10° WSW 16:01:39 59° NW 16:17:24 10° NE daylight
30 Aug - 18:21:34 10° WNW 18:31:58 17° NW 18:39:30 10° N visible
31 Aug - 01:56:21 10° NW 02:00:39 53° NE 02:06:28 10° ESE visible
31 Aug - 04:22:05 10° WSW 04:26:49 23° SSW 04:33:54 10° SSE visible
31 Aug - 06:54:08 10° SSW 06:58:17 12° S 07:03:18 10° SSE daylight
31 Aug - 09:22:33 10° SSW 09:35:32 21° SSE 09:52:12 10° ESE daylight
31 Aug - 11:49:43 10° SW 12:12:41 49° SE 12:35:31 10° ENE daylight
31 Aug - 14:20:16 10° SW 14:47:02 81° NW 15:05:57 10° NE daylight
31 Aug - 16:59:23 10° W 17:18:18 31° NW 17:30:27 10° NNE daylight
01 Sep - 00:46:47 10° N 00:49:58 19° NE 00:53:20 10° E night (unlit)
01 Sep - 03:10:25 10° W 03:14:54 37° SSW 03:21:42 10° SE visible
01 Sep - 05:40:37 10° SSW 05:43:55 12° S 05:47:54 10° SSE daylight
01 Sep - 08:11:12 10° SSW 08:18:51 14° SSE 08:28:33 10° SE daylight
01 Sep - 10:37:17 10° SSW 10:56:15 35° SSE 11:18:30 10° E daylight
01 Sep - 13:05:37 10° SW 13:31:35 77° SE 13:53:23 10° ENE daylight
01 Sep - 15:40:06 10° WSW 16:04:16 49° NW 16:20:05 10° NNE daylight
01 Sep - 18:28:25 10° WNW 18:35:41 13° NNW 18:41:27 10° N visible
02 Sep - 01:59:28 10° NW 02:03:51 85° SW 02:09:42 10° SE visible
02 Sep - 04:27:06 10° SW 04:30:43 15° SSW 04:35:27 10° SSE visible
02 Sep - 07:01:22 10° S 07:03:00 10° S 07:04:44 10° SSE daylight
02 Sep - 09:25:39 10° SSW 09:39:48 24° SSE 09:58:15 10° ESE daylight
02 Sep - 11:52:15 10° SW 12:15:38 58° SE 12:39:18 10° ENE daylight
02 Sep - 14:23:14 10° WSW 14:49:35 69° NW 15:08:47 10° NE daylight
02 Sep - 17:04:33 10° W 17:21:29 25° NW 17:32:57 10° NNE daylight
03 Sep - 00:49:07 10° NNW 00:53:11 34° NE 00:57:30 10° ESE night (unlit)
03 Sep - 03:14:33 10° WSW 03:18:29 23° SSW 03:23:55 10° SSE visible
03 Sep - 08:14:51 10° SSW 08:23:31 16° SSE 08:34:44 10° SE daylight
03 Sep - 10:39:55 10° SSW 10:59:35 42° SE 11:23:04 10° E daylight
03 Sep - 13:08:19 10° SW 13:34:11 89° SE 13:56:27 10° NE daylight
03 Sep - 15:44:07 10° W 16:07:04 40° NW 16:22:42 10° NNE daylight
03 Sep - 18:36:25 10° NW 18:39:46 11° NNW 18:42:46 10° NNW visible
03 Sep - 23:39:39 10° N 23:42:06 14° NNE 23:44:23 10° ENE night (unlit)
